Weather History for KPIH - March, 2013

Change the Weather History Date:

Monday, March 4, 2013

  Actual Average Record
Temperature  
Mean Temperature 30 °F 34 °F  
Max Temperature 37 °F 44 °F 64 °F (1987)
Min Temperature 22 °F 24 °F -12 °F (1985)
Degree Days  
Heating Degree Days 35 31  
Month to date heating degree days 116 126  
Since 1 July heating degree days 5227 5399  
Cooling Degree Days 0 0  
Month to date cooling degree days 0 0  
Year to date cooling degree days 0 0  
Moisture  
Dew Point 14 °F    
Average Humidity 57    
Maximum Humidity 84    
Minimum Humidity 29    
Precipitation  
Precipitation 0.00 in 0.04 in 0.97 in (1990)
Month to date precipitation 0.02 0.16  
Year to date precipitation 1.10 2.12  
Snow  
Snow 0.00 in - - ()
Month to date snowfall T  
Since 1 July snowfall 33.6  
Snow Depth 0.00 in    
Sea Level Pressure  
Sea Level Pressure 30.23 in    
Wind  
Wind Speed 4 mph (SW)    
Max Wind Speed 16 mph    
Max Gust Speed 18 mph    
Visibility 10 miles    
Events      
T = Trace of Precipitation, MM = Missing Value Source: NWS Daily Summary

Daily Weather History Graph

Daily Weather History Graph

Search for Another Location

Airport or City:

Trip Planner

Search our weather history database for the weather conditions in past years. The results will help you decide how hot, cold, wet, or windy it might be!

Date:

Astronomy

Mar. 04, 2013 Rise Set
Actual Time 7:00 AM MST 6:23 PM MST
Civil Twilight 6:32 AM MST 6:52 PM MST
Nautical Twilight 5:59 AM MST 7:24 PM MST
Astronomical Twilight 5:26 AM MST 7:57 PM MST
Moon 1:20 AM MST (3/4) 11:02 AM MST (3/4)
Length of Visible Light 12h 19m
Length of Day
11h 23m
Waning Gibbous, 51% of the Moon is Illuminated
Mar 4
Waning Gibbous
Mar 4
Last Quarter
Mar 11
New
Mar 19
First Quarter
Mar 27
Full

Hourly Weather History & Observations

Time (MST) Temp. Windchill Dew Point Humidity Pressure Visibility Wind Dir Wind Speed Gust Speed Precip Events Conditions
12:53 AM 26.1 °F 16.8 °F 18.0 °F 71% 30.02 in 10.0 mi West 9.2 mph - N/A   Scattered Clouds
1:53 AM 28.0 °F 21.7 °F 19.0 °F 69% 30.04 in 10.0 mi SW 5.8 mph - N/A   Overcast
2:53 AM 27.0 °F 18.7 °F 16.0 °F 63% 30.04 in 10.0 mi SSW 8.1 mph - N/A   Overcast
3:53 AM 27.0 °F 20.5 °F 16.0 °F 63% 30.06 in 10.0 mi SW 5.8 mph - N/A   Overcast
4:53 AM 26.1 °F 18.4 °F 17.1 °F 69% 30.09 in 10.0 mi SW 6.9 mph - N/A   Overcast
5:53 AM 24.1 °F - 17.1 °F 75% 30.14 in 10.0 mi Calm Calm - N/A   Overcast
6:53 AM 21.9 °F 15.7 °F 17.1 °F 82% 30.18 in 10.0 mi SSW 4.6 mph - N/A   Scattered Clouds
7:53 AM 25.0 °F 18.1 °F 18.0 °F 75% 30.22 in 10.0 mi West 5.8 mph - N/A   Partly Cloudy
8:53 AM 27.0 °F 23.0 °F 16.0 °F 63% 30.24 in 10.0 mi West 3.5 mph - N/A   Clear
9:53 AM 30.9 °F 27.5 °F 15.1 °F 52% 30.26 in 10.0 mi Variable 3.5 mph - N/A   Partly Cloudy
10:53 AM 33.1 °F 26.1 °F 15.1 °F 48% 30.27 in 10.0 mi NW 8.1 mph - N/A   Scattered Clouds
11:53 AM 32.0 °F 27.5 °F 12.0 °F 44% 30.29 in 10.0 mi Variable 4.6 mph - N/A   Scattered Clouds
12:53 PM 35.1 °F 30.1 °F 10.0 °F 35% 30.30 in 10.0 mi Variable 5.8 mph - N/A   Scattered Clouds
1:53 PM 35.1 °F 31.0 °F 9.0 °F 34% 30.30 in 10.0 mi Variable 4.6 mph - N/A   Scattered Clouds
2:53 PM 35.1 °F 32.2 °F 8.1 °F 33% 30.29 in 10.0 mi Variable 3.5 mph - N/A   Scattered Clouds
3:53 PM 37.0 °F - 9.0 °F 31% 30.29 in 10.0 mi Calm Calm - N/A   Scattered Clouds
4:53 PM 36.0 °F - 9.0 °F 33% 30.30 in 10.0 mi Calm Calm - N/A   Scattered Clouds
5:53 PM 34.0 °F - 10.0 °F 37% 30.31 in 10.0 mi Calm Calm - N/A   Partly Cloudy
6:53 PM 30.9 °F - 14.0 °F 50% 30.33 in 10.0 mi Calm Calm - N/A   Clear
7:53 PM 28.0 °F 24.2 °F 18.0 °F 66% 30.34 in 10.0 mi East 3.5 mph - N/A   Clear
8:53 PM 26.1 °F 19.4 °F 16.0 °F 66% 30.34 in 10.0 mi East 5.8 mph - N/A   Clear
9:53 PM 27.0 °F - 12.9 °F 56% 30.33 in 10.0 mi Calm Calm - N/A   Clear
10:53 PM 25.0 °F 20.7 °F 15.1 °F 66% 30.33 in 10.0 mi ESE 3.5 mph - N/A   Clear